Location: Gu�mene
(48.0670°N, 3.2027°W)
Time: 06:21:00
(UTC+00:00)

Daily predictions for brighter satellites

Satellite Brightness Start Highest point End
(mag) Time Altitude Azimuth Time Altitude Azimuth Time Altitude Azimuth
Cosmos 2227 Rocket 2.9 17:22:23 10° NNW 17:27:28 32° NE 17:32:30 10° ESE
Cosmos 2266 Rocket 4.1 17:22:11 10° N 17:28:26 88° E 17:34:47 10° S
CZ-4 R/B 2.9 17:27:39 10° E 17:30:00 16° ENE 17:32:20 10° NNE
Cosmos 1892 4.3 17:27:47 10° NNE 17:30:11 16° ENE 17:32:35 10° ESE
Cosmos 1602 Rocket 4.5 17:27:28 10° NNW 17:31:52 57° W 17:36:14 10° S
Cosmos 2263 Rocket 4.2 17:30:25 10° NNE 17:31:54 11° NNE 17:33:24 10° NE
Cosmos 1356 Rocket 4.1 17:28:35 10° SSW 17:32:50 64° WNW 17:37:08 10° N
BREEZE-M DEB (TANK) 3.9 17:29:56 10° WSW 17:33:16 74° NNW 17:44:51 10° ENE
BREEZE-M R/B 4.4 17:20:18 10° W 17:33:44 85° N 17:36:57 10° E
CZ-4C R/B 4.1 17:32:20 10° N 17:35:28 45° WNW 17:38:39 10° SW
CZ-4C R/B 4.1 17:33:18 10° NW 17:37:59 21° N 17:43:18 10° NE
NOAA 12 4.2 17:33:29 10° SSE 17:38:47 88° ENE 17:44:08 10° NNW
Cosmos 1953 Rocket 3.7 17:37:02 10° N 17:41:21 51° ENE 17:45:41 10° SSE
Cosmos 1300 3.1 17:39:00 10° SSE 17:42:36 42° E 17:46:14 10° NNE
SL-4 R/B 2.3 17:42:16 10° WNW 17:45:40 46° N 17:49:04 11° ENE
Cosmos 1697 Rocket 4.2 17:42:42 10° SE 17:45:52 15° E 17:49:02 10° ENE
Cosmos 2058 Rocket 3.8 17:42:00 10° SSE 17:45:59 32° E 17:49:59 10° NNE
Cosmos 1331 Rocket 4.0 17:41:05 10° S 17:46:12 68° ESE 17:51:20 10° NNE
IRS-1C Rocket 4.3 17:43:35 10° SE 17:48:38 49° ENE 17:53:43 10° N
CZ-2D R/B 4.1 17:45:25 10° SE 17:48:44 29° ENE 17:52:03 10° N
Cosmos 1346 Rocket 4.2 17:46:11 10° NNE 17:49:06 19° ENE 17:52:01 10° ESE
USA 305 3.5 17:45:33 10° WNW 17:49:42 44° NNE 17:53:27 12° E
SeaSat 1 3.9 17:46:31 10° E 17:49:51 19° NE 17:53:12 10° N
Cosmos 1953 4.4 17:46:36 10° SW 17:50:06 30° WNW 17:53:39 10° N
Cosmos 1825 4.1 17:49:50 10° NE 17:51:17 12° ENE 17:51:38 12° ENE
Cosmos 44 3.2 17:49:05 10° SSW 17:53:29 61° ESE 17:58:14 10° NE
Cosmos 1315 Rocket 4.5 17:53:40 10° ESE 17:55:40 14° E 17:56:20 13° ENE
NOAA 11 4.1 17:50:37 10° SSE 17:56:04 79° ENE 18:01:31 10° NNW
USA 306 3.4 17:51:58 10° WNW 17:56:07 46° NNE 17:59:35 14° E
USA 215 4.0 17:51:39 10° ENE 17:57:39 41° N 18:03:41 10° WNW
SAR-Lupe-4 3.8 17:55:59 10° NNE 17:59:29 48° E 18:02:57 10° S
ERS-2 2.1 17:55:57 10° NNE 17:59:37 88° WNW 18:03:15 10° SSW
BREEZE-M R/B 3.3 17:56:10 10° W 17:59:37 72° N 18:05:18 14° E
ATLAS 2AS CENTAUR R/B 3.9 17:53:20 10° NW 17:59:57 29° NNE 18:05:17 13° ENE
Cosmos 968 Rocket 3.8 17:58:14 10° NNW 18:03:15 43° ENE 18:08:11 10° SE
Cosmos 1340 2.8 18:00:34 10° N 18:04:15 48° ENE 18:07:55 10° SSE
Cosmos 2369 Rocket 4.4 18:02:35 10° W 18:06:44 20° NW 18:10:55 10° N
Cosmos 2297 Rocket 2.2 18:01:58 10° NNW 18:07:39 69° ENE 18:13:18 10° SE
COSMO-SKYMED 1 2.7 18:04:02 10° NNE 18:08:17 50° E 18:12:29 10° S
Cosmos 1980 Rocket 4.0 18:06:29 10° ESE 18:07:19 11° ESE 18:07:19 11° ESE
H-2A R/B 3.8 18:06:11 10° N 18:09:56 33° WNW 18:13:38 10° SW
In-Cosmos 22 Rocket 4.1 18:05:07 10° N 18:10:25 58° ENE 18:15:47 10° SSE
Aureole 3 Rocket 3.3 18:07:36 10° S 18:11:30 55° E 18:16:54 10° NNE
Cosmos 1110 Rocket 4.4 18:09:41 10° SSW 18:14:54 66° WNW 18:20:07 10° NNE
S3M 4.4 18:10:04 10° SSE 18:15:35 37° E 18:21:09 10° NNE
Cosmos 1302 Rocket 4.0 18:11:58 10° S 18:17:11 67° ESE 18:22:27 10° NNE
SAR-Lupe-1 3.9 18:13:47 10° NNE 18:17:23 75° ESE 18:20:58 10° S
Lacrosse 5 3.1 18:15:41 10° WNW 18:20:08 30° N 18:23:30 15° NE
FALCON 9 DEB 4.0 18:17:25 10° WNW 18:20:38 36° N 18:22:07 24° ENE
FALCON 9 DEB 2.9 18:18:48 10° WSW 18:22:01 77° SSE 18:23:30 29° ENE
Cosmos 292 Rocket 3.9 18:17:34 10° SSW 18:22:21 76° WNW 18:27:13 10° NNE
Okean O Rocket 3.6 18:18:29 10° SSW 18:22:22 31° W 18:26:17 10° NNW
ERBS 4.4 18:20:11 10° NW 18:22:33 18° N 18:24:02 14° NNE
YAOGAN 1 2.8 18:19:36 10° SE 18:23:46 47° ENE 18:27:56 10° N
Cosmos 1486 Rocket 4.0 18:18:30 10° NNW 18:23:50 65° ENE 18:29:07 10° SSE
Aureole 3 2.5 18:22:02 10° S 18:25:10 78° E 18:28:09 10° NNE
FALCON 9 DEB 2.8 18:23:01 10° WSW 18:26:12 86° SSE 18:27:30 33° ENE
Cosmos 1812 Rocket 4.4 18:26:43 10° SE 18:30:25 27° E 18:30:36 27° E
Cosmos 1455 2.9 18:27:47 10° SSE 18:31:08 31° E 18:31:14 31° E
Meteor 2-8 Rocket 4.4 18:25:12 10° S 18:31:18 79° E 18:37:28 10° NNE
SKYMED 3 4.5 18:27:58 10° NNE 18:32:21 87° E 18:36:42 10° SSW
Cosmos 1503 Rocket 4.2 18:28:33 10° NNW 18:33:36 47° ENE 18:37:11 19° SE
CZ-2C R/B 3.3 18:28:11 10° SSE 18:33:52 63° ENE 18:39:25 10° N
Cosmos 1726 Rocket 4.3 18:30:20 10° SSW 18:34:35 54° WNW 18:38:54 10° N
Cosmos 2219 3.5 18:32:15 10° NNW 18:38:00 71° WSW 18:43:43 10° SSE
CZ-4B R/B 3.3 18:35:16 10° N 18:38:07 29° WNW 18:40:54 10° SW
FALCON 9 DEB 2.9 18:35:02 10° WSW 18:38:18 83° NNW 18:39:10 45° ENE
USA 307 2.9 18:34:57 10° WNW 18:39:15 65° NNE 18:40:52 35° E
Cosmos 1939 Rocket 3.6 18:36:40 10° S 18:40:34 55° W 18:44:26 10° NNW
USA 308 2.9 18:39:48 10° WNW 18:44:05 69° NNE 18:45:31 40° E
Meteor 2-10 Rocket 3.5 18:39:14 10° S 18:44:25 59° E 18:49:28 10° NNE
Cosmos 1553 Rocket 3.9 18:38:36 10° S 18:44:57 83° E 18:51:16 10° N
Cosmos 1354 Rocket 4.1 18:40:03 10° NNW 18:45:12 51° ENE 18:47:53 26° SE
Cosmos 2082 3.7 18:41:00 10° NNW 18:46:44 65° ENE 18:50:45 20° SE
Helios 1A Rocket 3.2 18:43:54 10° S 18:48:00 67° WSW 18:52:06 10° NNW
FALCON 9 DEB 3.0 18:46:41 10° WSW 18:49:53 68° NNW 18:50:17 59° NNE
ATLAS 5 CENTAUR R/B 4.1 18:49:25 10° NW 18:52:06 15° N 18:55:00 10° NNE
Cosmos 1689 Rocket 3.2 18:49:44 10° N 18:52:30 42° WNW 18:55:15 10° SW
Meteor 2-15 Rocket 4.4 18:46:50 10° S 18:52:51 62° E 18:58:55 10° NNE
Okean-O 3.0 18:51:23 10° S 18:55:47 66° WSW 19:00:13 10° NNW
Cosmos 1992 Rocket 3.9 18:51:06 10° S 18:56:12 59° ESE 18:59:48 19° NNE
SKYMED 2 4.3 18:52:06 10° N 18:56:22 54° WNW 19:00:35 10° SSW
ARGOS 3.2 18:54:41 24° SE 18:57:46 54° ENE 19:03:04 10° N
Cosmos 2151 4.5 18:54:10 10° N 18:56:04 22° NNE 18:56:04 22° NNE
Cosmos 1400 Rocket 4.0 18:56:35 10° SSW 19:00:32 44° WNW 19:04:28 10° N
Cosmos 2369 3.8 18:55:35 10° S 19:01:04 50° ESE 19:03:11 34° ENE
Cosmos 1656 3.8 18:58:35 10° SSW 19:04:09 78° WNW 19:09:51 10° NNE
CZ-4 R/B 2.0 19:00:51 10° S 19:04:39 53° W 19:08:27 10° NNW
Meteor 2-15 4.4 18:59:07 10° S 19:05:16 89° W 19:11:27 10° N
Cosmos 2058 3.0 19:02:01 10° NNW 19:06:07 72° W 19:10:11 10° S
Cosmos 1892 3.7 19:02:24 10° NNW 19:06:10 48° W 19:09:54 10° S
H-2A R/B 2.0 19:01:05 10° SSE 19:06:30 82° ENE 19:11:59 10° NNW
Ariane Rocket 3.9 19:07:51 31° NE 19:07:51 31° NE 19:11:23 10° N
GEOS 3 Rocket 3.6 19:05:41 35° SE 19:08:05 85° NE 19:13:31 10° NW
Geosat 3.9 19:06:43 34° NE 19:08:51 67° ESE 19:13:51 10° SSW
Cosmos 220 Rocket 3.9 19:05:09 10° SSW 19:09:31 83° ESE 19:10:52 44° NNE
Cosmos 1408 2.9 19:06:07 10° NNW 19:09:44 65° W 19:11:40 26° S
Cosmos 1745 Rocket 4.1 19:03:36 10° N 19:09:55 79° W 19:16:14 10° S
Cosmos 2227 Rocket 3.0 19:06:18 10° NW 19:11:46 51° WSW 19:17:11 10° S
CSL-04 Rocket 3.7 19:10:15 10° SSE 19:15:49 85° WSW 19:21:23 10° NNW
Atlas Centaur 2 4.5 19:11:26 10° SW 19:17:28 22° S 19:20:08 19° SSE
Cosmos 2263 Rocket 2.9 19:12:22 10° NNW 19:17:16 36° NE 19:17:16 36° NE
Timation 1 Rocket 4.2 19:12:40 10° NNW 19:18:43 76° ENE 19:20:34 46° SE
Meteor 2-1 Rocket 4.2 19:18:35 10° SSW 19:24:05 77° WNW 19:29:39 10° N
SL-4 R/B 2.6 19:21:55 10° WNW 19:24:38 47° NW 19:24:38 47° NW
Cosmos 1346 Rocket 4.1 19:21:53 10° NNW 19:25:39 40° W 19:29:24 10° SSW
SeaSat 1 2.3 19:26:15 72° SE 19:26:44 82° ENE 19:31:42 10° NNW
Cosmos 1825 2.9 19:23:29 10° NNW 19:26:28 49° NW 19:26:28 49° NW
CZ-4C R/B 3.5 19:22:20 10° NW 19:28:32 36° NNE 19:29:36 35° NE
Cosmos 1697 Rocket 2.6 19:23:23 10° SSW 19:29:00 89° WNW 19:31:25 36° NNE
USA 305 3.2 19:25:38 10° WNW 19:29:36 64° WSW 19:29:36 64° WSW
NOSS 3-4 (A) 3.8 19:23:19 10° NW 19:30:08 62° NE 19:31:39 52° E
NOSS 3-4 (C) 3.8 19:23:25 10° NW 19:30:14 62° NE 19:31:43 52° E
Cosmos 1315 Rocket 3.4 19:27:50 10° SSW 19:31:44 55° WNW 19:32:10 52° NW
DEBRIS 4.1 19:17:49 10° WSW 19:35:40 79° SSE 19:36:49 61° E
USA 306 3.5 19:32:03 10° WNW 19:35:44 55° WSW 19:35:44 55° WSW
Cosmos 1709 Rocket 4.0 19:33:18 10° N 19:39:42 82° W 19:44:29 19° S
NOSS 3-3 (A) 3.8 19:34:11 10° SW 19:40:02 87° NW 19:41:47 51° NE
USA 215 3.3 19:39:00 54° ENE 19:40:03 61° NNE 19:46:29 10° NW
NOSS 3-3 (C) 3.8 19:34:17 10° SW 19:40:10 88° NW 19:41:53 52° NE
MOS 1 Rocket 4.0 19:42:48 10° N 19:47:19 53° WNW 19:52:06 10° SSW
Cosmos 1980 Rocket 3.2 19:46:04 10° SSW 19:49:11 34° SSW 19:49:11 34° SSW
ATLAS 2AS CENTAUR R/B 2.7 19:44:48 10° NW 19:52:22 66° NE 19:52:43 65° ENE
IRS-1A Rocket 4.5 19:53:26 60° N 19:53:26 60° N 19:57:57 10° NNW
Cosmos 2315 Rocket 4.0 19:54:05 10° SSW 20:00:16 75° W 20:06:30 10° N
Lacrosse 5 3.2 19:59:22 10° NW 20:02:41 32° NNW 20:02:41 32° NNW
BREEZE-M R/B 4.4 20:17:33 10° WNW 20:22:09 66° SW 20:22:09 66° SW
ATLAS 5 CENTAUR R/B 4.4 20:35:12 10° NNW 20:36:31 14° NNW 20:36:31 14° NNW
Cosmos 2263 Rocket 4.1 20:56:17 10° NW 20:58:58 26° NW 20:58:58 26° NW
CZ-4C R/B 3.9 21:10:41 10° NW 21:14:47 40° NW 21:14:47 40° NW
ATLAS 2AS CENTAUR R/B 4.5 21:36:24 10° NW 21:40:10 26° WNW 21:40:10 26° WNW
